Date String (YYYY-MM-DD hh:mm:ss) UTC,Instrument flags,Ambient pressure (hPa),Sample flow (lpm),Bypass flow (lpm),Sample temperature (°C),Ambient temperature (°C),ASC tube jacket temperature (°C),LED temperature (°C),Box temperature (°C),Sample RH (%),Span deviation,Mass concentration (μg/m³),Mass concentration (μg/m³),Mass concentration (μg/m³)
DateTimeUTC,F1_M11,P_M11,Q1_M11,Q2_M11,T1_M11,T2_M11,T3_M11,T4_M11,T5_M11,U1_M11,ZSPAN_M11,X0_M11,X2_M11,X1_M11
2023-03-08 00:00:00,,0825.6,5.00,0.00,22.3,20.9,00.0,31.1,24.1,13.4,-000.7,0009.95,0007.46,0007.11
2023-03-08 00:01:00,,0825.6,4.99,0.00,22.4,21.9,00.0,31.1,24.3,13.4,-001.1,0010.21,0007.51,0007.14
2023-03-08 00:02:00,,0825.6,5.01,0.00,22.5,22.9,00.0,31.1,24.5,13.2,-001.0,0010.34,0007.58,0007.17
2023-03-08 00:03:00,,0825.6,4.98,0.00,22.6,22.9,00.0,31.1,24.5,13.1,-000.9,0010.29,0007.60,0007.18
2023-03-08 00:04:00,,0825.6,5.01,0.00,22.6,22.5,00.0,31.2,24.5,13.1,-001.0,0010.34,0007.60,0007.18
2023-03-08 00:05:00,,0825.6,4.99,0.00,22.6,22.1,00.0,31.2,24.4,13.1,-001.1,0010.35,0007.62,0007.19
2023-03-08 00:06:00,,0825.6,4.99,0.00,22.6,21.8,00.0,31.2,24.4,13.1,-001.6,0010.45,0007.62,0007.18
2023-03-08 00:07:00,,0825.6,5.00,0.00,22.6,21.6,00.0,31.2,24.4,13.0,-001.6,0010.49,0007.59,0007.18
2023-03-08 00:08:00,,0825.6,4.99,0.00,22.6,21.4,00.0,31.2,24.3,13.0,-001.6,0010.44,0007.57,0007.18
2023-03-08 00:09:00,,0825.7,5.00,0.00,22.6,21.3,00.0,31.2,24.3,13.1,-001.5,0010.47,0007.60,0007.19
2023-03-08 00:10:00,,0825.7,5.01,0.00,22.6,21.2,00.0,31.2,24.3,13.2,-001.2,0010.53,0007.63,0007.20
2023-03-08 00:11:00,,0825.7,5.00,0.00,22.6,21.1,00.0,31.2,24.3,13.0,-001.2,0010.49,0007.63,0007.21
2023-03-08 00:12:00,,0825.7,4.99,0.00,22.5,21.0,00.0,31.2,24.3,13.0,-000.8,0010.39,0007.65,0007.21
2023-03-08 00:13:00,,0825.7,4.99,0.00,22.5,21.0,00.0,31.2,24.3,13.0,-000.6,0010.45,0007.64,0007.21
2023-03-08 00:14:00,,0825.7,5.00,0.00,22.5,20.9,00.0,31.2,24.3,13.0,-000.6,0010.58,0007.65,0007.23
2023-03-08 00:15:00,,0825.7,4.99,0.00,22.5,20.9,00.0,31.2,24.3,13.0,-000.5,0010.57,0007.66,0007.24
2023-03-08 00:16:00,,0825.7,5.01,0.00,22.5,20.9,00.0,31.2,24.2,13.1,-000.8,0010.62,0007.67,0007.25
2023-03-08 00:17:00,,0825.7,5.01,0.00,22.5,20.8,00.0,31.2,24.2,13.0,-000.7,0010.54,0007.67,0007.25
2023-03-08 00:18:00,,0825.8,4.98,0.00,22.5,20.8,00.0,31.2,24.2,13.0,-000.6,0010.41,0007.68,0007.25
2023-03-08 00:19:00,,0825.9,5.03,0.00,22.4,20.8,00.0,31.2,24.1,13.1,-000.7,0010.51,0007.70,0007.25
2023-03-08 00:20:00,,0825.8,5.01,0.00,22.4,20.7,00.0,31.2,24.1,13.2,-000.6,0010.53,0007.69,0007.24
2023-03-08 00:21:00,,0825.8,5.00,0.00,22.4,20.7,00.0,31.2,24.1,13.3,-000.3,0010.54,0007.70,0007.23
2023-03-08 00:22:00,,0825.9,4.99,0.00,22.4,20.7,00.0,31.2,24.1,13.2,-000.2,0010.52,0007.68,0007.20
2023-03-08 00:23:00,,0825.9,5.01,0.00,22.4,20.7,00.0,31.2,24.1,13.3,-000.4,0010.50,0007.65,0007.19
2023-03-08 00:24:00,,0825.9,4.99,0.00,22.4,20.7,00.0,31.2,24.1,13.2,-000.7,0010.40,0007.64,0007.18
2023-03-08 00:25:00,,0826.0,5.02,0.00,22.4,20.7,00.0,31.2,24.1,13.2,-000.4,0010.47,0007.65,0007.17
2023-03-08 00:26:00,,0826.0,5.01,0.00,22.3,20.7,00.0,31.1,24.1,13.1,-000.3,0010.42,0007.62,0007.13
2023-03-08 00:27:00,,0826.0,5.01,0.00,22.3,20.7,00.0,31.1,24.1,13.1,-000.1,0010.31,0007.56,0007.09
2023-03-08 00:28:00,,0826.0,4.99,0.00,22.4,21.2,00.0,31.1,24.2,13.0,0000.3,0010.30,0007.54,0007.06
2023-03-08 00:29:00,,0826.0,5.04,0.00,22.5,22.3,00.0,31.1,24.4,12.9,0000.2,0010.26,0007.50,0007.05
2023-03-08 00:30:00,,0826.1,4.99,0.00,22.6,23.1,00.0,31.1,24.6,12.9,-000.4,0010.33,0007.49,0007.03
2023-03-08 00:31:00,,0826.2,5.00,0.00,22.6,22.9,00.0,31.2,24.6,13.0,-000.6,0010.26,0007.47,0007.01
2023-03-08 00:32:00,,0826.1,4.98,0.00,22.6,22.5,00.0,31.2,24.5,12.8,-001.0,0010.21,0007.45,0007.01
2023-03-08 00:33:00,,0826.1,5.00,0.00,22.6,22.1,00.0,31.2,24.5,12.6,-000.9,0010.27,0007.45,0007.02
2023-03-08 00:34:00,,0826.1,5.01,0.00,22.7,21.9,00.0,31.3,24.5,12.4,-000.5,0010.26,0007.47,0007.04
2023-03-08 00:35:00,,0826.1,5.00,0.00,22.6,21.6,00.0,31.3,24.4,12.4,-000.5,0010.22,0007.47,0007.05
2023-03-08 00:36:00,,0826.2,5.00,0.00,22.6,21.4,00.0,31.3,24.4,12.4,-000.8,0009.93,0007.45,0007.06
2023-03-08 00:37:00,,0826.2,5.00,0.00,22.6,21.3,00.0,31.3,24.4,12.5,-001.0,0009.99,0007.47,0007.08
2023-03-08 00:38:00,,0826.2,5.00,0.00,22.6,21.2,00.0,31.3,24.3,12.5,-000.9,0010.72,0007.50,0007.10
2023-03-08 00:39:00,,0826.2,5.01,0.00,22.6,21.1,00.0,31.3,24.3,12.5,-001.0,0010.82,0007.53,0007.12
2023-03-08 00:40:00,,0826.1,5.01,0.00,22.6,21.1,00.0,31.3,24.3,12.5,-000.8,0010.97,0007.54,0007.13
2023-03-08 00:41:00,,0826.2,5.01,0.00,22.6,21.0,00.0,31.3,24.3,12.5,-000.3,0010.98,0007.56,0007.16
2023-03-08 00:42:00,,0826.2,5.00,0.00,22.6,21.0,00.0,31.3,24.3,12.5,-000.3,0011.72,0007.57,0007.17
2023-03-08 00:43:00,,0826.2,5.00,0.00,22.6,21.0,00.0,31.3,24.3,12.5,-000.5,0012.17,0007.61,0007.19
2023-03-08 00:44:00,,0826.2,5.00,0.00,22.6,20.9,00.0,31.3,24.3,12.6,-000.7,0012.14,0007.62,0007.20
2023-03-08 00:45:00,,0826.2,4.99,0.00,22.5,20.9,00.0,31.3,24.2,12.6,-000.8,0012.12,0007.60,0007.19
2023-03-08 00:46:00,,0826.2,5.00,0.00,22.5,20.9,00.0,31.3,24.2,12.6,-000.9,0012.10,0007.59,0007.17
2023-03-08 00:47:00,,0826.2,4.99,0.00,22.5,20.8,00.0,31.3,24.2,12.6,-001.0,0012.20,0007.58,0007.17
2023-03-08 00:48:00,,0826.2,5.00,0.00,22.5,20.8,00.0,31.3,24.2,12.6,-000.9,0012.31,0007.57,0007.16
2023-03-08 00:49:00,,0826.2,4.99,0.00,22.5,20.8,00.0,31.3,24.2,12.6,-000.8,0011.71,0007.55,0007.15
2023-03-08 00:50:00,,0826.3,5.00,0.00,22.4,20.8,00.0,31.2,24.1,12.7,-000.6,0011.62,0007.51,0007.12
2023-03-08 00:51:00,,0826.3,5.00,0.00,22.4,20.7,00.0,31.2,24.2,12.7,-000.5,0011.91,0007.46,0007.06
2023-03-08 00:52:00,,0826.4,5.00,0.00,22.4,20.7,00.0,31.2,24.2,12.7,-000.6,0011.67,0007.39,0007.00
2023-03-08 00:53:00,,0826.4,4.98,0.00,22.4,20.7,00.0,31.2,24.2,12.7,-000.4,0011.24,0007.34,0006.95
2023-03-08 00:54:00,,0826.4,4.98,0.00,22.4,20.7,00.0,31.2,24.2,12.8,0000.1,0010.43,0007.26,0006.88
2023-03-08 00:55:00,,0826.4,5.01,0.00,22.4,20.7,00.0,31.2,24.1,12.8,0000.7,0010.34,0007.21,0006.82
2023-03-08 00:56:00,,0826.4,5.00,0.00,22.4,20.7,00.0,31.2,24.1,12.8,0000.4,0010.31,0007.17,0006.77
2023-03-08 00:57:00,,0826.5,4.99,0.00,22.4,20.7,00.0,31.2,24.1,12.8,0000.8,0010.31,0007.12,0006.71
2023-03-08 00:58:00,,0826.5,4.99,0.00,22.4,20.7,00.0,31.2,24.1,12.9,0001.1,0010.22,0007.09,0006.66
2023-03-08 00:59:00,,0826.5,5.00,0.00,22.4,20.6,00.0,31.2,24.1,12.9,0001.0,0010.03,0007.05,0006.60
